| time (UTC) | temp F | wind direction | speed knots | gust knots | rain 1hr in | rain 24hr in | rain mn in | humidity % | barometer mb |
| 20260506033705 | 67 | 205 | 0.9 | 2.6 | 0.00 | 0.00 | 0.00 | 64 | 1010.6 |
| 20260506031705 | 67 | 222 | 1.7 | 5.2 | 0.00 | 0.00 | 0.00 | 64 | 1010.4 |
| 20260506031204 | 67 | 201 | 2.6 | 5.2 | 0.00 | 0.00 | 0.00 | 64 | 1010.3 |
| 20260506030705 | 67 | 207 | 0.9 | 7.0 | 0.00 | 0.00 | 0.00 | 64 | 1010.4 |
| 20260506030204 | 67 | 205 | 1.7 | 7.0 | 0.00 | 0.00 | 0.00 | 64 | 1010.4 |
| 20260506024705 | 67 | 230 | 2.6 | 6.1 | 0.00 | 0.00 | 0.00 | 65 | 1010.4 |
| 20260506024205 | 67 | 242 | 0.9 | 4.3 | 0.00 | 0.00 | 0.00 | 65 | 1010.4 |
| 20260506023704 | 67 | 200 | 0.9 | 5.2 | 0.00 | 0.00 | 0.00 | 65 | 1010.5 |
| 20260506023204 | 67 | 195 | 0.9 | 5.2 | 0.00 | 0.00 | 0.00 | 65 | 1010.5 |
| 20260506021705 | 67 | 212 | 1.7 | 6.1 | 0.00 | 0.00 | 0.00 | 65 | 1010.3 |
| 20260506021206 | 66 | 209 | 4.3 | 10.4 | 0.00 | 0.00 | 0.00 | 65 | 1010.2 |
| 20260506020204 | 66 | 230 | 1.7 | 7.8 | 0.00 | 0.00 | 0.00 | 66 | 1010.2 |
| 20260506014705 | 66 | 244 | 1.7 | 6.1 | 0.00 | 0.00 | 0.00 | 66 | 1010.1 |
| 20260506014205 | 66 | 278 | 1.7 | 6.1 | 0.00 | 0.00 | 0.00 | 66 | 1010.0 |
| 20260506013204 | 66 | 253 | 0.9 | 6.1 | 0.00 | 0.00 | 0.00 | 66 | 1009.9 |
| 20260506011704 | 66 | 232 | 0.9 | 4.3 | 0.00 | 0.00 | 0.00 | 65 | 1009.7 |
| 20260506011205 | 66 | 242 | 0.9 | 5.2 | 0.00 | 0.00 | 0.00 | 65 | 1009.7 |
| 20260506010705 | 66 | 219 | 1.7 | 5.2 | 0.00 | 0.00 | 0.00 | 65 | 1009.6 |
| 20260506010205 | 67 | 220 | 0.9 | 4.3 | 0.00 | 0.00 | 0.00 | 65 | 1009.6 |
| 20260506004705 | 68 | 210 | 0.9 | 2.6 | 0.00 | 0.00 | 0.00 | 62 | 1009.4 |
| 20260506004205 | 69 | 269 | 0.9 | 2.6 | 0.00 | 0.00 | 0.00 | 61 | 1009.4 |
| 20260506003704 | 69 | 276 | 0.9 | 1.7 | 0.00 | 0.00 | 0.00 | 60 | 1009.2 |
| 20260506003204 | 70 | 226 | 1.7 | 5.2 | 0.00 | 0.00 | 0.00 | 59 | 1009.2 |
| 20260506001704 | 70 | 235 | 0.9 | 4.3 | 0.00 | 0.00 | 0.00 | 58 | 1008.9 |
| 20260506000705 | 71 | 246 | 1.7 | 4.3 | 0.00 | 0.00 | 0.00 | 57 | 1008.9 |
| 20260505234704 | 73 | 235 | 0.9 | 2.6 | 0.00 | 0.00 | 0.00 | 55 | 1008.7 |
| 20260505234205 | 74 | 221 | 0.0 | 2.6 | 0.00 | 0.00 | 0.00 | 52 | 1008.7 |
| 20260505233704 | 76 | 251 | 1.7 | 6.1 | 0.00 | 0.00 | 0.00 | 46 | 1008.6 |
| 20260505233204 | 77 | 204 | 2.6 | 7.8 | 0.00 | 0.00 | 0.00 | 37 | 1008.4 |
| 20260505231705 | 76 | 155 | 1.7 | 7.8 | 0.00 | 0.00 | 0.00 | 39 | 1008.2 |
| 20260505231204 | 75 | 202 | 0.9 | 7.8 | 0.00 | 0.00 | 0.00 | 43 | 1008.2 |
| 20260505230705 | 75 | 213 | 0.0 | 2.6 | 0.00 | 0.00 | 0.00 | 51 | 1008.2 |
| 20260505230205 | 75 | 246 | 0.0 | 4.3 | 0.00 | 0.00 | 0.00 | 52 | 1008.2 |
| 20260505224705 | 77 | 224 | 0.9 | 4.3 | 0.00 | 0.00 | 0.00 | 49 | 1007.9 |
| 20260505224204 | 78 | 216 | 1.7 | 6.1 | 0.00 | 0.00 | 0.00 | 48 | 1007.9 |
| 20260505223704 | 78 | 243 | 0.9 | 4.3 | 0.00 | 0.00 | 0.00 | 47 | 1007.8 |
| 20260505223205 | 79 | 223 | 1.7 | 10.4 | 0.00 | 0.00 | 0.00 | 43 | 1007.8 |
| 20260505221704 | 81 | 219 | 2.6 | 8.7 | 0.00 | 0.00 | 0.00 | 34 | 1007.6 |
| 20260505221204 | 81 | 199 | 4.3 | 11.3 | 0.00 | 0.00 | 0.00 | 33 | 1007.7 |
| 20260505220705 | 81 | 204 | 5.2 | 15.6 | 0.00 | 0.00 | 0.00 | 34 | 1007.7 |
| 20260505214704 | 81 | 200 | 1.7 | 7.8 | 0.00 | 0.00 | 0.00 | 36 | 1007.4 |
| 20260505214204 | 81 | 197 | 4.3 | 10.4 | 0.00 | 0.00 | 0.00 | 36 | 1007.4 |
| 20260505211704 | 80 | 231 | 0.9 | 4.3 | 0.00 | 0.00 | 0.00 | 49 | 1007.3 |
| 20260505210706 | 79 | 238 | 0.9 | 6.1 | 0.00 | 0.00 | 0.00 | 49 | 1007.3 |
| 20260505210204 | 80 | 276 | 1.7 | 6.1 | 0.00 | 0.00 | 0.00 | 49 | 1007.4 |
| 20260505204705 | 80 | 310 | 0.9 | 4.3 | 0.00 | 0.00 | 0.00 | 48 | 1007.3 |
| 20260505204205 | 80 | 307 | 1.7 | 2.6 | 0.00 | 0.00 | 0.00 | 47 | 1007.4 |
| 20260505203705 | 80 | 290 | 0.9 | 4.3 | 0.00 | 0.00 | 0.00 | 48 | 1007.4 |
| 20260505203205 | 80 | 264 | 0.0 | 6.1 | 0.00 | 0.00 | 0.00 | 50 | 1007.6 |
| 20260505201704 | 79 | 240 | 0.9 | 4.3 | 0.00 | 0.00 | 0.00 | 49 | 1007.6 |
| 20260505200704 | 79 | 253 | 2.6 | 4.3 | 0.00 | 0.00 | 0.00 | 49 | 1007.7 |
| 20260505200204 | 79 | 240 | 2.6 | 7.0 | 0.00 | 0.00 | 0.00 | 49 | 1007.8 |
| 20260505194704 | 79 | 234 | 0.9 | 2.6 | 0.00 | 0.00 | 0.00 | 51 | 1008.0 |
| 20260505194204 | 78 | 272 | 0.9 | 4.3 | 0.00 | 0.00 | 0.00 | 52 | 1008.0 |
| 20260505193704 | 78 | 266 | 1.7 | 5.2 | 0.00 | 0.00 | 0.00 | 52 | 1008.2 |
| 20260505193204 | 78 | 223 | 1.7 | 10.4 | 0.00 | 0.00 | 0.00 | 51 | 1008.2 |
| 20260505191704 | 79 | 265 | 1.7 | 6.1 | 0.00 | 0.00 | 0.00 | 50 | 1008.4 |
| 20260505191205 | 79 | 233 | 2.6 | 8.7 | 0.00 | 0.00 | 0.00 | 51 | 1008.3 |
| 20260505190705 | 79 | 222 | 1.7 | 5.2 | 0.00 | 0.00 | 0.00 | 50 | 1008.4 |
| 20260505190204 | 79 | 235 | 1.7 | 7.0 | 0.00 | 0.00 | 0.00 | 51 | 1008.5 |
| 20260505184705 | 79 | 71 | 0.9 | 4.3 | 0.00 | 0.00 | 0.00 | 50 | 1008.8 |
| 20260505183705 | 80 | 255 | 2.6 | 7.0 | 0.00 | 0.00 | 0.00 | 48 | 1009.0 |
| 20260505183204 | 80 | 326 | 2.6 | 12.2 | 0.00 | 0.00 | 0.00 | 47 | 1009.0 |
| 20260505181704 | 81 | 257 | 3.5 | 10.4 | 0.00 | 0.00 | 0.00 | 46 | 1009.0 |
| 20260505181204 | 82 | 233 | 2.6 | 7.0 | 0.00 | 0.00 | 0.00 | 45 | 1009.0 |
| 20260505180205 | 81 | 233 | 2.6 | 8.7 | 0.00 | 0.00 | 0.00 | 46 | 1009.1 |
| 20260505174204 | 81 | 215 | 2.6 | 7.0 | 0.00 | 0.00 | 0.00 | 47 | 1009.2 |
| 20260505173718 | 80 | 244 | 1.7 | 6.1 | 0.00 | 0.00 | 0.00 | 47 | 1009.3 |
| 20260505173205 | 80 | 223 | 2.6 | 10.4 | 0.00 | 0.00 | 0.00 | 47 | 1009.4 |
| 20260505171206 | 79 | 186 | 1.7 | 7.0 | 0.00 | 0.00 | 0.00 | 48 | 1009.5 |
| 20260505170204 | 79 | 14 | 1.7 | 7.8 | 0.00 | 0.00 | 0.00 | 47 | 1009.6 |
| 20260505164704 | 79 | 240 | 2.6 | 7.0 | 0.00 | 0.00 | 0.00 | 48 | 1010.0 |
| 20260505163205 | 78 | 225 | 3.5 | 7.8 | 0.00 | 0.00 | 0.00 | 49 | 1010.1 |
| 20260505161705 | 77 | 215 | 1.7 | 5.2 | 0.00 | 0.00 | 0.00 | 51 | 1010.3 |
| 20260505161204 | 77 | 213 | 2.6 | 5.2 | 0.00 | 0.00 | 0.00 | 51 | 1010.4 |
| 20260505160705 | 76 | 214 | 2.6 | 5.2 | 0.00 | 0.00 | 0.00 | 50 | 1010.4 |
| 20260505160205 | 76 | 263 | 1.7 | 8.7 | 0.00 | 0.00 | 0.00 | 51 | 1010.4 |
| 20260505151205 | 73 | 227 | 1.7 | 7.0 | 0.00 | 0.00 | 0.00 | 57 | 1010.9 |
| 20260505140205 | 68 | 271 | 2.6 | 6.1 | 0.00 | 0.00 | 0.00 | 62 | 1011.3 |
| 20260505130205 | 64 | 244 | 0.9 | 5.2 | 0.00 | 0.00 | 0.00 | 66 | 1011.1 |
| 20260505124204 | 61 | 214 | 0.9 | 4.3 | 0.00 | 0.00 | 0.00 | 64 | 1011.1 |
| 20260505123204 | 60 | 270 | 0.9 | 5.2 | 0.00 | 0.00 | 0.00 | 63 | 1011.2 |
| 20260505121704 | 60 | 235 | 0.9 | 2.6 | 0.00 | 0.00 | 0.00 | 60 | 1011.3 |
| 20260505121205 | 59 | 211 | 0.9 | 2.6 | 0.00 | 0.00 | 0.00 | 59 | 1011.3 |
| 20260505114704 | 59 | 87 | 0.0 | 0.0 | 0.00 | 0.00 | 0.00 | 55 | 1011.2 |
| 20260505114204 | 59 | 87 | 0.0 | 0.0 | 0.00 | 0.00 | 0.00 | 56 | 1011.0 |
| 20260505113204 | 59 | 79 | 0.0 | 2.6 | 0.00 | 0.00 | 0.00 | 61 | 1011.2 |
| 20260505111704 | 59 | 224 | 0.0 | 0.9 | 0.00 | 0.00 | 0.00 | 63 | 1011.5 |
| 20260505111204 | 58 | 218 | 0.0 | 0.9 | 0.00 | 0.00 | 0.00 | 64 | 1011.4 |
| 20260505110704 | 58 | 225 | 0.0 | 1.7 | 0.00 | 0.00 | 0.00 | 63 | 1011.4 |
| 20260505110204 | 58 | 207 | 0.9 | 2.6 | 0.00 | 0.00 | 0.00 | 63 | 1011.6 |
| 20260505101704 | 56 | 266 | 0.0 | 2.6 | 0.00 | 0.00 | 0.00 | 60 | 1011.1 |
| 20260505101204 | 56 | 242 | 0.0 | 0.9 | 0.00 | 0.00 | 0.00 | 60 | 1011.0 |
| 20260505100704 | 56 | 215 | 0.0 | 0.9 | 0.00 | 0.00 | 0.00 | 60 | 1010.9 |
| 20260505100205 | 56 | 240 | 0.9 | 2.6 | 0.00 | 0.00 | 0.00 | 61 | 1010.8 |
| 20260505094704 | 56 | 266 | 0.0 | 0.0 | 0.00 | 0.00 | 0.00 | 60 | 1010.5 |
| 20260505094204 | 56 | 266 | 0.0 | 0.0 | 0.00 | 0.00 | 0.00 | 61 | 1010.6 |
| 20260505093704 | 56 | 232 | 0.0 | 0.9 | 0.00 | 0.00 | 0.00 | 61 | 1010.5 |
| 20260505093204 | 56 | 251 | 0.0 | 2.6 | 0.00 | 0.00 | 0.00 | 61 | 1010.5 |
| 20260505091704 | 56 | 244 | 0.0 | 2.6 | 0.00 | 0.00 | 0.00 | 61 | 1010.4 |
| 20260505091204 | 56 | 249 | 0.9 | 1.7 | 0.00 | 0.00 | 0.00 | 61 | 1010.4 |
| 20260505090204 | 56 | 247 | 0.9 | 2.6 | 0.00 | 0.00 | 0.00 | 61 | 1010.4 |
| 20260505084704 | 56 | 212 | 0.0 | 2.6 | 0.00 | 0.00 | 0.00 | 61 | 1010.4 |
| 20260505084204 | 56 | 223 | 0.0 | 0.9 | 0.00 | 0.00 | 0.00 | 61 | 1010.3 |
| 20260505083204 | 56 | 205 | 0.0 | 1.7 | 0.00 | 0.00 | 0.00 | 62 | 1010.4 |
| 20260505081704 | 56 | 247 | 0.0 | 0.9 | 0.00 | 0.00 | 0.00 | 63 | 1010.5 |
| 20260505081204 | 56 | 215 | 0.0 | 0.9 | 0.00 | 0.00 | 0.00 | 63 | 1010.5 |
| 20260505080204 | 56 | 152 | 0.0 | 1.7 | 0.00 | 0.00 | 0.00 | 64 | 1010.5 |
| 20260505074704 | 57 | 212 | 0.9 | 2.6 | 0.00 | 0.00 | 0.00 | 66 | 1010.5 |
| 20260505074204 | 57 | 224 | 0.0 | 2.6 | 0.00 | 0.00 | 0.00 | 65 | 1010.4 |
| 20260505073704 | 56 | 226 | 0.0 | 2.6 | 0.00 | 0.00 | 0.00 | 65 | 1010.4 |
| 20260505073204 | 56 | 289 | 0.9 | 2.6 | 0.00 | 0.00 | 0.00 | 65 | 1010.4 |
| 20260505071705 | 55 | 231 | 0.0 | 1.7 | 0.00 | 0.00 | 0.00 | 64 | 1010.4 |
| 20260505071204 | 55 | 187 | 0.0 | 0.0 | 0.00 | 0.00 | 0.00 | 65 | 1010.4 |
| 20260505070704 | 55 | 276 | 0.0 | 0.0 | 0.00 | 0.00 | 0.00 | 65 | 1010.4 |
| 20260505070204 | 55 | 276 | 0.0 | 0.9 | 0.00 | 0.00 | 0.00 | 65 | 1010.3 |
| 20260505064705 | 56 | 225 | 0.0 | 0.9 | 0.00 | 0.00 | 0.00 | 66 | 1010.4 |
| 20260505063704 | 56 | 231 | 0.0 | 0.0 | 0.00 | 0.00 | 0.00 | 67 | 1010.5 |
| 20260505061704 | 57 | 231 | 0.0 | 0.0 | 0.00 | 0.00 | 0.00 | 67 | 1010.7 |
| 20260505061204 | 57 | 231 | 0.0 | 0.0 | 0.00 | 0.00 | 0.00 | 67 | 1010.7 |
| 20260505060704 | 57 | 231 | 0.0 | 0.0 | 0.00 | 0.00 | 0.00 | 67 | 1010.7 |
| 20260505060204 | 58 | 231 | 0.0 | 1.7 | 0.00 | 0.00 | 0.00 | 67 | 1010.7 |
| 20260505054704 | 58 | 237 | 0.0 | 1.7 | 0.00 | 0.00 | 0.00 | 67 | 1010.8 |
| 20260505053704 | 57 | 235 | 0.0 | 0.9 | 0.00 | 0.00 | 0.00 | 67 | 1010.7 |
| 20260505053204 | 56 | 166 | 0.0 | 2.6 | 0.00 | 0.00 | 0.00 | 67 | 1010.7 |
| 20260505051704 | 55 | 224 | 0.0 | 0.0 | 0.00 | 0.00 | 0.00 | 68 | 1010.9 |
| 20260505051203 | 56 | 224 | 0.0 | 0.0 | 0.00 | 0.00 | 0.00 | 68 | 1010.9 |
| 20260505050704 | 56 | 224 | 0.0 | 0.0 | 0.00 | 0.00 | 0.00 | 68 | 1010.9 |
| 20260505050204 | 56 | 224 | 0.0 | 0.0 | 0.00 | 0.00 | 0.00 | 68 | 1010.9 |
| 20260505040204 | 59 | 185 | 0.0 | 1.7 | 0.00 | 0.00 | 0.00 | 64 | 1011.1 |
| 20260505034704 | 60 | 235 | 0.0 | 0.0 | 0.00 | 0.00 | 0.00 | 63 | 1011.1 |
| 20260505034204 | 60 | 235 | 0.0 | 0.0 | 0.00 | 0.00 | 0.00 | 62 | 1011.1 |